Regional Weather Roundup
Issued by NWS

Home | Current Version | Previous Version | Graphics & Text | Print | Product List | Glossary On
Versions: 1 2 3 4 5 6 7 8 9 10 11 12 13 14 15 16 17 18 19 20 21 22 23 24 25 26 27 28 29 30 31 32 33 34 35 36 37 38 39 40 41 42 43 44 45 46 47 48 49 50
000
ASUS43 KDMX 261101
RWRIA

WEATHER ROUNDUP FOR IOWA
NATIONAL WEATHER SERVICE DES MOINES IA
600 AM CDT SUN MAR 26 2017

NOTE: "FAIR" INDICATES FEW OR NO CLOUDS BELOW 12,000 FEET WITH NO
SIGNIFICANT WEATHER AND/OR OBSTRUCTIONS TO VISIBILITY.

* - THESE STATIONS ARE NOT NWS STATIONS...THUS NOT UNDER NWS
QUALITY CONTROL.  THEY ALSO DO NOT REPORT WEATHER SUCH
AS PRECIPITATION OR FOG.

IAZ001>003-012>014-020>022-031>034-043>046-261200-
   NORTHWEST IOWA

CITY           SKY/WX    TMP DP  RH WIND       PRES   REMARKS
CARROLL *      CLOUDY    37  37 100 N7        29.87S FOG     WCI  32
CHEROKEE *     CLOUDY    37  37 100 N5        29.89S FOG     WCI  33
LE MARS *      CLOUDY    37  37 100 N3        29.92R FOG
ORANGE CITY *  CLOUDY    37  37 100 NE5       29.90R FOG     WCI  34
SHELDON *      CLOUDY    36  36 100 NE6       29.88S FOG     WCI  31
SIOUX CITY     CLOUDY    39  38  96 N5        29.91R
SPENCER        CLOUDY    37  36  96 NE6       29.89S WCI  32
STORM LAKE *   CLOUDY    36  36 100 N8        29.88S FOG     WCI  29
$$

IAZ055>058-069>071-079>083-090>094-261200-
   SOUTHWEST IOWA

CITY           SKY/WX    TMP DP  RH WIND       PRES   REMARKS
ATLANTIC *     CLOUDY    39  39 100 N7        29.88R WCI  34
AUDUBON *      CLOUDY    37  36  93 N5        29.88R FOG     WCI  34
CLARINDA *     CLOUDY    41  41 100 N8        29.90R FOG
COUNCIL BLFS * CLOUDY    39  39 100 N5        29.88S
CRESTON *      CLOUDY    39  39 100 NW9       29.86F FOG     WCI  33
HARLAN  *      CLOUDY    39  39 100 N6        29.91S WCI  35
LAMONI         FOG       40  40 100 W14       29.85R VSB 1/2 WCI  32
RED OAK *      CLOUDY    41  41 100 N7        29.88S FOG
SHENANDOAH *   CLOUDY    41  41 100 N7        29.89S
$$

IAZ047>049-059>061-072>074-084-261200-
   CENTRAL IOWA

CITY           SKY/WX    TMP DP  RH WIND       PRES   REMARKS
AMES           LGT RAIN  40  40 100 N7        29.85R
ANKENY *       CLOUDY    41  39  93 NW6       29.86R
BOONE *        CLOUDY    39  39 100 NW10      29.85R FOG     WCI  32
CHARITON *     FOG       41  41 100 NW9       29.82S VSB 1/2
DES MOINES     CLOUDY    42  41  96 NW7       29.85R
GRINNELL*      FOG       40  40  98 N12       29.83S VSB 1/2 WCI  33
MARSHALLTOWN   CLOUDY    39  39 100 NE10      29.83S FOG     WCI  32
NEWTON *       CLOUDY    41  39  93 N12       29.81S FOG
PELLA *        CLOUDY    41  41  99 N8        29.83S FOG
PERRY *        CLOUDY    39  39  97 N8        29.87R FOG     WCI  34
$$

IAZ004>006-015-016-023>025-035-036-261200-
   NORTH CENTRAL IOWA

CITY           SKY/WX    TMP DP  RH WIND       PRES   REMARKS
ALGONA *       CLOUDY    37  37 100 N8        29.88S FOG     WCI  31
CLARION *      CLOUDY    37  37 100 N7        29.87S FOG     WCI  32
ESTHERVILLE    FOG       35  35 100 N7        29.89R VSB 3/4 WCI  29
FORT DODGE *   CLOUDY    37  34  87 NE5       29.88S WCI  34
MASON CITY     CLOUDY    36  36 100 N8        29.88S FOG     WCI  30
FOREST CITY *  CLOUDY    36  36 100 NE7       29.87S FOG     WCI  30
WEBSTER CITY * FOG       37  37 100 N9        29.85R VSB 1/2 WCI  31
IOWA FALLS *   CLOUDY    39  38  97 NE9       29.85S WCI  32
$$

IAZ007>011-017>019-026>030-037>042-050>054-066-261200-
   NORTHEAST IOWA

CITY           SKY/WX    TMP DP  RH WIND       PRES   REMARKS
CEDAR RAPIDS   CLOUDY    42  42 100 NE9       29.80S FOG
CHARLES CITY * CLOUDY    37  37 100 NE12      29.86F WCI  30
CLINTON *      FOG       47  47 100 E10       29.81S VSB 1/2
DECORAH *      FOG       36  36 100 NE6       29.86F VSB 1/2 WCI  31
DUBUQUE        FOG       41  41 100 NE10      29.82F VSB 1/4
MONTICELLO *   CLOUDY    43  43 100 NE5       29.82S FOG
OELWEIN *      CLOUDY    39  39 100 NE12      29.84S FOG     WCI  32
WATERLOO       FOG       39  38  96 NE9       29.84F VSB 1   WCI  33
$$

IAZ064-065-067-068-078-261200-
   EAST CENTRAL IOWA

CITY           SKY/WX    TMP DP  RH WIND       PRES   REMARKS
DAVENPORT      FOG       48  47  96 NE7       29.80S VSB 1/4
IOWA CITY      CLOUDY    46  44  93 NE7       29.81S
MUSCATINE *    FOG       48  46  93 NE6       29.80S VSB 1/4
QUAD CITIES    FOG       49  48  97 E5        29.79S VSB 1/4
$$

IAZ062-063-075>077-085>089-095>099-261200-
   SOUTHEAST IOWA

CITY           SKY/WX    TMP DP  RH WIND       PRES   REMARKS
BURLINGTON     CLOUDY    54  54 100 SE6       29.77S
FAIRFIELD *    CLOUDY    46  46 100 NE9       29.78R
FORT MADISON * CLOUDY    54  54 100 S7        29.78R FOG
KEOKUK *       CLOUDY    50  50 100 SW10      29.78R FOG
OSKALOOSA *    FOG       42  42  99 N9        29.81R VSB 1/2
OTTUMWA        CLOUDY    44  44 100 NW9       29.80R FOG
WASHINGTON *   FOG       46  46 100 NE10      29.79S VSB 1/4
$$

ABBREVIATIONS USED IN REMARKS
   TC - TEMPERATURES IN CELSIUS
  WCI - WIND CHILL INDEX
   HX - HEAT INDEX
  VSB - VISIBILITY
$$





USA.gov is the U.S. government's official web portal to all federal, state and local government web resources and services.